Regional Weather Roundup
Issued by NWS Wakefield, VA

Home | Current Version | Previous Version | Text Only | Print | Product List | Glossary On
Versions: 1 2 3 4 5 6 7 8 9 10 11 12 13 14 15 16 17 18 19 20 21 22 23 24 25 26 27 28 29 30 31 32 33 34 35 36 37 38 39 40 41 42 43 44 45 46 47 48 49 50
000
ASUS41 KAKQ 170010
RWRAKQ

REGIONAL WEATHER ROUNDUP
NATIONAL WEATHER SERVICE WAKEFIELD VA
800 PM EDT TUE SEP 16 2014

Note: "fair" indicates few or no clouds below 12,000 feet with no
significant weather and/or obstructions to visibility. * = Denotes
station may not report precipitation (e.g., rain,snow,etc.),
thunder or fog.

VAZ042-051-052>054-056-170100-
NORTHERN VIRGINIA

CITY           SKY/WX    TMP DP  RH WIND       PRES   REMARKS
WASH NATIONAL  PTCLDY    72  51  47 NE13      30.01R
DULLES         PTCLDY    67  49  52 N8        30.01S
FORT BELVOIR   CLEAR     65  54  68 CALM      30.01R
QUANTICO       CLEAR     71  53  52 N9        30.01R
FREDERICKSBRG* CLEAR     70  56  61 CALM      29.99S
STAFFORD*      PTCLDY    62  60  94 CALM      30.04R
WARRENTON      CLEAR     66  58  75 N3        30.00R
CULPEPER*      CLEAR     63  54  72 CALM      30.02R
MANASSAS*      CLEAR     66  54  63 N6        30.01
LEESBURG*      CLEAR     66  54  63 N5        30.03R
WINCHESTER     PTCLDY    64  46  52 CALM      30.03S
FRONT ROYAL*   MOCLDY    64  50  59 N3        30.02R
LURAY*         CLEAR     63  52  67 N3        30.02S
$$

VAZ048-049-060>072-079>083-170100-
CENTRAL AND SOUTH CENTRAL VIRGINIA...AND NORTH CENTRAL NORTH CAROLINA

CITY           SKY/WX    TMP DP  RH WIND       PRES   REMARKS
RICHMOND       MOCLDY    72  58  61 NE6       29.98R
CHESTERFIELD*  CLOUDY    73  52  46 NE5       29.99S
PETERSBURG*    CLOUDY    73  60  63 N7        29.98S
HANOVER        MOCLDY    67  61  81 CALM      30.00S
TAPPAHANNOCK*  MOCLDY    66  58  76 CALM      30.00R
CHARLOTTSVILLE MOCLDY    68  55  63 N3        30.00R
ORANGE*        CLOUDY    66  54  63 CALM      30.02R
LOUISA*        MOCLDY    68  57  68 NE3       29.99S
FARMVILLE*     MOCLDY    72  59  64 NE8       29.96S
CREWE*         MOCLDY    74  65  73 NE3       29.97R
FORT PICKETT*  PTCLDY    68  64  86 CALM      29.97R
LUNENBURG*     CLOUDY    71  68  92 CALM      29.97S
SOUTH HILL*    PTCLDY    70  70 100 CALM      30.01
LAWRENCEVILLE* PTCLDY    69  66  91 CALM      29.96S
ROANOKE RAPIDS PTCLDY    68  64  88 CALM      29.95S
RALEIGH        MOCLDY    75  64  68 E5        29.96S
$$

VAZ088>098-170100-
SOUTHEAST VIRGINIA

CITY           SKY/WX    TMP DP  RH WIND       PRES   REMARKS
NORFOLK        MOCLDY    72  63  73 NE7       29.97R
VIRGINIA BEACH PTCLDY    70  60  70 NE3       29.96S
NORFOLK NAVAL  MOCLDY    76  63  64 NE16      29.99R
WEST POINT*    MOCLDY    71  64  77 CALM      30.00R
NEWPORT NEWS   CLOUDY    74  63  68 NE7       29.98R
LANGLEY AFB    MOCLDY    72  64  78 NE8       29.97R
FORT EUSTIS    MOCLDY    72  59  62 NE10      29.96R
WILLIAMSBURG*  MOCLDY    73  66  78 CALM      29.98S
HR EXEC AP*    CLEAR     64  61  88 NE3       29.98S
FRANKLIN*        N/A     70  66  88 CALM      29.96R
WAKEFIELD      CLOUDY    73  65  75 NE6       29.97R
$$

VAZ020-022-025-037-045-170100-
WEST CENTRAL AND SOUTHWEST VIRGINIA

CITY           SKY/WX    TMP DP  RH WIND       PRES   REMARKS
STAUNTON*      CLOUDY    69  48  46 NE5       30.04S
HOT SPRINGS VA PTCLDY    54  40  59 NW7       30.12S
LYNCHBURG      CLEAR     64  60  87 NW3       30.00R
DANVILLE       MOCLDY    71  66  84 CALM      29.98S
SOUTH BOSTON*  NOT AVBL
MARTINSVILLE   MOCLDY    68  68  99 CALM      30.02R
ROANOKE        MOCLDY    69  57  65 N6        30.02R
BLACKSBURG     CLEAR     64  61  88 N6        30.07R
DUBLIN*        CLEAR     65  60  83 N3        30.06R
MARION*        PTCLDY    65  58  79 CALM      30.08S
HILLSVILLE*    PTCLDY    64  58  82 N5        30.06S
RICHLANDS*     MOCLDY    65  60  84 N7        30.07S
WISE*          CLOUDY    61  59  94 N3        30.09S
ABINGDON*      PTCLDY    66  63  89 CALM      30.04S
$$

MDZ021>025-VAZ099-100-170100-
SOUTHERN MARYLAND AND THE DELMARVA PENINSULA

CITY           SKY/WX    TMP DP  RH WIND       PRES   REMARKS
PATUXENT RIVER PTCLDY    69  54  58 N6        29.99R
BAY BRIDGE APT   N/A     68  52  56 NE5       30.00R
LEONARDTOWN    CLEAR     64  52  63 CALM      30.01R
DOVER          MOCLDY    65  55  70 NW8       29.98R
GEORGETOWN     CLEAR     68  57  68 E8        30.00R
EASTON         PTCLDY    68  57  68 N5        30.03S
CAMBRIDGE      CLEAR     66  55  68 CALM      29.99R
SALISBURY      CLEAR     69  57  65 CALM      29.99R
OCEAN CITY     MOCLDY    70  57  63 NE6       29.98R
WALLOPS ISLAND CLEAR     68  60  75 NW3       29.98S
ACCOMACK*      MOCLDY    68  59  73 CALM      29.98R
$$

NCZ012>017-030>032-170100-
EASTERN NORTH CAROLINA

CITY           SKY/WX    TMP DP  RH WIND       PRES   REMARKS
ELIZABETH CITY CLEAR     72  62  71 E7        29.96F
AHOSKIE*       PTCLDY    68  67  95 CALM      29.96S
EDENTON*       NOT AVBL
CURRITUCK*     CLEAR     70  64  80 CALM      29.98R
KILL DEVIL HLS PTCLDY    73  60  62 E6        29.96R
MANTEO         CLEAR     73  59  62 E6        29.97S
CAPE HATTERAS  PTCLDY    76  69  79 S7        29.95S
TARBORO*       CLEAR     70  68  93 CALM      29.96S
GOLDSBORO      CLEAR     74  73  96 CALM      29.93S
WASHINGTON     CLEAR     73  68  84 CALM      29.95S
GREENVILLE     CLEAR     72  70  94 CALM      29.97S
NEW BERN       CLEAR     75  68  78 CALM      29.95S
WILMINGTON     CLEAR     76  71  85 S3        29.94F
$$

VAZ048-170100-
ELSEWHERE

CITY           SKY/WX    TMP DP  RH WIND       PRES   REMARKS
HARRISBURG PA  PTCLDY    63  51  65 CALM      30.01S
BALTIMORE      PTCLDY    67  51  56 CALM      30.00S
ANNAPOLIS      CLEAR     70  56  61 N6        30.00R
ANDREWS AFB    CLEAR     64  52  63 N9        30.00R
WILMINGTON DE  PTCLDY    65  54  67 N6        30.01R
PHILADELPHIA   PTCLDY    69  51  52 N8        30.01R
WILDWOOD NJ*   CLOUDY    66  55  68 N3        30.00R
ATLANTIC CITY  PTCLDY    62  56  80 E3        30.00R
GREENSBORO     CLOUDY    70  68  93 NE5       29.99R
ROCKY MOUNT    CLEAR     69  66  90 CALM      29.95S
FAYETTEVILLE   CLEAR     78  68  71 SE7       29.93F
CHARLOTTE      MOCLDY    75  61  61 E8        29.96R
$$

VAZ100-170100-
MARINE

STATION/POSITION TIME  TEMP    WIND        PRES    WAVE   SWELL
                       AIR SEA DIR/SP/G            HT/PER HT/PER
                 (UTC) (F)     (DEG/KT/KT) (MB)    (FT/S) (FT/S)
44066 TX TWR #4  0000   67 73   30/ 12/ 16 1014.8R   2/ 7   2/ 7
CAPE MAY NJ      0000   70 76   10/  3/  5 1015.0R
LEWES DE         0000   72 73  360/ 10/ 15 1015.3R
15NM E FENWICK I 0000   70 72              1015.0R   2/13
OCEAN-CITY-INLET 0000   72 72   30/  5/  8 1014.8R
WACHAPREAGUE VA  0000   71 76  350/  3/  5 1015.0F
THOMAS POINT MD  0000   71 75  360/ 13/ 14 1016.7R
GOOSES REEF MD   0000   73      40/ 14/ 16 1015.8R
COVE POINT MD    0000   72      40/ 13/ 15 1015.4R
SOLOMONS ISLAND  0000      76                N/A
BISHOPS HEAD MD  0000   71 75  350/  3/  5 1015.0R
PINEY POINT MD   0000           40/  3/  3   N/A
POTOMAC MD       0000   73      20/  8/ 10 1014.7R
CAMBRIDGE MD     0000   71 76   10/  9/ 11 1015.2R
LEWISETTA VA     0000   73 75   30/  6/ 10 1014.9S
RAPPAHANNOCK LGT 0000           10/ 13/ 14 1015.5R
STINGRAY PT      0000   74      30/ 12/ 14   N/A
YORK RVR RNG VA  0000   72      60/ 11/ 12 1014.7R
YORKTOWN VA      0000   72 77   60/ 10/ 11 1014.6S
JAMESTOWN VA     0000   70      70/  6/ 10   N/A
DOMINION TERM VA 0000   74      30/  5/  8 1014.9R
KIPTOPEKE VA     0000      79   30/  5/  7   N/A
CHES BAY BRIDGE  0000   74 76   30/ 11/ 14 1014.2R
CAPE HENRY VA    0000   74      30/ 12/ 13 1013.5R
CHESAPEAKE LGHT  2300   74      30/ 10/ 11 1015.1S
WILLOUBY STN VA  0000   74      40/ 13/ 15 1013.7R
S CRANEY ISL VA  0000           10/  8/  9 1014.5R
CAPE HENRY BUOY  0000      76                N/A     2/13   2/13
1ST LANDING BUOY 0000   75      50/  8/ 14 1014.3R
CAPE CHARLES BUO 0000      75                N/A     2/13   2/13
OFFSHORE WE BUOY 0000      75                N/A     2/13   2/13
64NM E OF VA BCH 0000   75 79   10/ 10/ 14 1014.2S   2/13   2/13
DUCK PIER NC     0000   74 77   60/  9/ 10 1014.0S
44100 DUCK FRF   0000      75                N/A     2/13   2/13
44056 DUCK FRF   2300                        N/A     2/13   2/13
OREGON INLET NC  0000   73 76   40/  8/ 11 1014.7R
HATTERAS NC      0000   77 79  180/  4/  6 1014.6S
DIAMOND SHLS NC  0000   76     290/  2/  4 1014.6R   2/ 8   2/ 8
CAPE LOOKOUT NC  2300   78     180/  6/  7 1014.2S
$$


USA.gov is the U.S. government's official web portal to all federal, state and local government web resources and services.